FW3095 Weather Reports


time (UTC)temp
C
wind
direction
speed
KPH
gust
KPH
rain 1hr
cm
rain 24hr
cm
rain mn
cm
humidity
%
barometer
mb
20260906080053 18 53 0.0 6.4 0.00 0.03 0.00 96 987.6
20260906074544 18 38 1.6 6.4 0.00 0.03 0.00 97 987.5
20260906073043 18 37 1.6 8.0 0.00 0.03 0.00 97 987.4
20260906071542 18 58 0.0 6.4 0.00 0.03 0.00 97 987.4
20260906070041 18 53 1.6 9.7 0.00 0.03 0.00 97 987.2
20260906064540 18 46 1.6 6.4 0.00 0.03 0.00 97 987.6
20260906063038 19 46 1.6 8.0 0.00 0.03 0.00 97 987.5
20260906061540 19 56 3.2 8.0 0.00 0.03 0.00 97 987.6
20260906060037 19 38 0.0 6.4 0.00 0.03 0.00 96 987.5
20260906054535 19 63 1.6 8.0 0.00 0.03 0.00 97 987.4
20260906053032 20 66 1.6 4.8 0.00 0.03 0.00 97 987.1
20260906051530 20 64 0.0 4.8 0.00 0.03 0.00 96 987.2
20260906050028 20 80 1.6 6.4 0.00 0.03 0.00 96 987.2
20260906044527 20 42 1.6 8.0 0.00 0.03 0.00 96 987.2
20260906043023 21 62 3.2 9.7 0.00 0.03 0.00 96 986.8
20260906041528 21 61 3.2 14.5 0.00 0.03 0.00 97 986.8
20260906040017 21 56 3.2 8.0 0.00 0.03 0.00 96 986.9
20260906034525 21 96 3.2 12.9 0.00 0.03 0.03 96 986.9
20260906033018 22 60 1.6 11.3 0.00 0.03 0.03 97 987.1
20260906031514 22 39 3.2 11.3 0.00 0.03 0.03 96 986.9
20260906030013 22 56 4.8 12.9 0.00 0.03 0.03 96 986.7
20260906024510 22 63 4.8 12.9 0.00 0.03 0.03 97 986.3
20260906023009 22 52 4.8 16.1 0.00 0.03 0.03 97 986.2
20260906021513 22 45 6.4 14.5 0.00 0.03 0.03 97 986.1
20260906020009 23 108 3.2 9.7 0.03 0.03 0.03 97 986.0
20260906014518 23 51 6.4 11.3 0.03 0.03 0.03 97 985.8
20260906013006 23 53 3.2 16.1 0.03 0.03 0.03 96 985.4
20260906011506 24 45 6.4 17.7 0.03 0.03 0.03 95 985.2
20260906010008 24 77 4.8 16.1 0.00 0.00 0.00 93 985.0
20260906004505 25 62 4.8 16.1 0.00 0.00 0.00 92 984.9
20260906003004 25 30 3.2 16.1 0.00 0.00 0.00 89 984.8
20260906001502 26 56 1.6 6.4 0.00 0.00 0.00 85 984.5
20260906000003 27 337 3.2 8.0 0.00 0.00 0.00 84 984.5
20260905234503 28 292 1.6 6.4 0.00 0.00 0.00 82 984.6
20260905233000 28 326 3.2 9.7 0.00 0.00 0.00 82 984.4
20260905231600 28 293 1.6 4.8 0.00 0.00 0.00 82 984.2
20260905230059 28 293 0.0 4.8 0.00 0.00 0.00 81 984.2
20260905224613 30 302 3.2 9.7 0.00 0.00 0.00 78 984.2
20260905223106 30 296 0.0 1.6 0.00 0.00 0.00 78 984.0
20260905221558 30 296 1.6 6.4 0.00 0.00 0.00 76 984.0
20260905220057 31 333 1.6 6.4 0.00 0.00 0.00 76 983.8
20260905214559 31 333 0.0 4.8 0.00 0.00 0.00 80 983.8
20260905213056 30 48 0.0 8.0 0.00 0.00 0.00 81 983.8
20260905211556 30 13 1.6 6.4 0.00 0.00 0.00 81 983.5
20260905210056 30 303 1.6 6.4 0.00 0.00 0.00 80 983.6
20260905204554 29 270 1.6 6.4 0.00 0.00 0.00 86 983.6
20260905203054 31 300 6.4 16.1 0.00 0.00 0.00 74 983.6
20260905201601 31 244 4.8 9.7 0.00 0.00 0.00 75 983.7
20260905200052 31 227 4.8 16.1 0.00 0.00 0.00 76 983.9
20260905194550 31 249 6.4 14.5 0.00 0.00 0.00 76 984.0
20260905193048 31 259 6.4 14.5 0.00 0.00 0.00 75 984.4
20260905191550 31 248 4.8 12.9 0.00 0.00 0.00 77 984.3
20260905190100 31 238 6.4 12.9 0.00 0.00 0.00 75 984.5
20260905184559 31 280 6.4 11.3 0.00 0.00 0.00 76 984.7
20260905183043 31 246 6.4 12.9 0.00 0.00 0.00 76 984.7
20260905181543 30 242 8.0 16.1 0.00 0.00 0.00 75 984.9
20260905180041 30 250 6.4 12.9 0.00 0.00 0.00 74 985.1
20260905174545 30 158 1.6 8.0 0.00 0.00 0.00 76 985.1
20260905173040 30 268 6.4 14.5 0.00 0.00 0.00 76 985.3
20260905171536 30 231 4.8 11.3 0.00 0.00 0.00 73 985.6
20260905170035 30 232 4.8 12.9 0.00 0.00 0.00 73 985.7
20260905164534 29 153 3.2 11.3 0.00 0.03 0.00 76 985.9
20260905163033 30 158 0.0 11.3 0.00 0.03 0.00 76 986.2
20260905161530 29 267 1.6 11.3 0.00 0.03 0.00 77 986.2
20260905160030 28 152 1.6 8.0 0.00 0.03 0.00 77 986.0
20260905154525 28 158 4.8 11.3 0.00 0.03 0.00 77 986.1
20260905153022 27 153 3.2 12.9 0.00 0.03 0.00 78 986.0
20260905151519 27 70 1.6 12.9 0.00 0.03 0.00 80 985.6
20260905150015 26 148 1.6 11.3 0.00 0.03 0.00 83 986.0
20260905144512 25 158 8.0 12.9 0.00 0.03 0.00 84 985.9
20260905143011 24 224 3.2 17.7 0.00 0.03 0.00 86 985.7
20260905141508 24 126 8.0 14.5 0.00 0.03 0.00 86 985.7
20260905140006 24 153 6.4 17.7 0.00 0.03 0.00 88 985.7
20260905134505 23 152 4.8 17.7 0.00 0.03 0.00 89 985.6
20260905133004 22 141 12.9 20.9 0.00 0.03 0.00 89 985.4
20260905131503 23 134 11.3 20.9 0.00 0.03 0.00 88 985.6
20260905130002 22 148 6.4 16.1 0.00 0.03 0.00 90 985.8
20260905124502 22 143 8.0 14.5 0.00 0.03 0.00 92 985.8
20260905123109 21 139 6.4 12.9 0.00 0.03 0.00 94 985.8
20260905121559 21 127 4.8 9.7 0.00 0.03 0.00 95 986.0
20260905120056 -17 0.0 0.0 0.00 0.03 0.00 986.1
20260905114552 -17 0.0 0.0 0.00 0.03 0.00 986.0
20260905113046 -17 0.0 0.0 0.00 0.03 0.00 985.7
20260905111552 -17 0.0 0.0 0.00 0.03 0.00 985.5
20260905110038 -17 0.0 0.0 0.00 0.03 0.00 985.6
20260905104533 -17 0.0 0.0 0.00 0.03 0.00 985.6
20260905103032 -17 101 6.4 16.1 0.00 0.03 0.00 93 985.6
20260905101531 23 79 6.4 16.1 0.00 0.03 0.00 100 985.6
20260905100024 23 74 0.0 11.3 0.00 0.03 0.00 100 985.1
20260905094523 22 136 0.0 0.0 0.00 0.03 0.00 99 984.9
20260905093021 22 136 0.0 0.0 0.00 0.03 0.00 99 984.8
20260905091521 22 136 0.0 0.0 0.00 0.03 0.00 98 984.8
20260905090024 23 136 0.0 0.0 0.00 0.03 0.00 98 984.7
20260905084549 23 146 0.0 0.0 0.00 0.03 0.00 98 984.8
20260905083021 23 146 0.0 0.0 0.00 0.03 0.00 97 984.8
20260905081518 23 146 0.0 0.0 0.00 0.03 0.00 97 984.7